Flag for Colombia Weather past 2 weeks in Bogota, Colombia

Now
61 °F

Partly sunny.


Feels Like: 61 °F
Forecast: 48 / 66 °F
Wind: 5 mph from East

Location: Bogota / Eldorado

Current Time: Sep 2, 2015 at 2:34:43 PM

Latest Report: Sep 2, 2015 at 2:00 PM


Visibility: N/A

Pressure: 30.37 "Hg (22.29 "Hg at 2618m altitude)

Humidity: 59%

Dew point: 46 °F

Location of BogotaLocation

Historic Weather in Bogota — Graph

°F

Bogota temperature yesterday

Maximum temperature yesterday: 64 °F (at 1:00 PM)
Minimum temperature yesterday: 48 °F (at 9:00 PM)
Average temperature yesterday: 57 °F

Past Weeks' High & Low Weather Summary

 TemperatureHumidityPressure
High84 °F (Aug 18, 6:00 PM)100% (Aug 19, 1:00 AM)30.46 "Hg (Aug 19, 1:00 AM)
Low41 °F (Sep 2, 5:00 AM)37% (Aug 29, 4:00 PM)29.93 "Hg (Aug 18, 6:00 PM)
Average58 °F70%30.34 "Hg
* Reported Aug 18 1:00 PM — Sep 2 1:00 PM, Bogota, Weather by CustomWeather, © 2015

Note: Actual official high and low records may vary slightly from our data, if they occured in-between our weather recording intervals... More about our weather records

Advertising

Bogota weather history for previous 24 hours

 ConditionsComfort  
Time TempWeatherWind HumidityBarometerVisibility
1:00 PM
Wed, Sep 2
57 °FScattered showers. Overcast.8 mph63%30.41 "HgN/A
12:00 PM55 °FDrizzle. Broken clouds.10 mph67%30.40 "HgN/A
11:00 AM57 °FScattered showers. Broken clouds.13 mph59%30.46 "HgN/A
10:00 AM57 °FDrizzle. Broken clouds.16 mph59%30.46 "HgN/A
9:00 AM54 °FScattered showers. Broken clouds.6 mph82%30.46 "HgN/A
8:00 AM48 °FScattered clouds.2 mph94%30.43 "Hg6 mi
7:00 AM45 °FFog.2 mph100%30.40 "HgN/A
6:00 AM43 °FFog.3 mph93%30.38 "HgN/A
5:00 AM41 °FFog.2 mph93%30.38 "HgN/A
4:00 AM43 °FPassing clouds.No wind100%30.37 "HgN/A
3:00 AM43 °FPassing clouds.2 mph93%30.37 "HgN/A
2:00 AM48 °FPassing clouds.3 mph82%30.38 "HgN/A
1:00 AM48 °FPassing clouds.3 mph87%30.41 "HgN/A
12:00 AM50 °FPassing clouds.5 mph82%30.43 "HgN/A
11:00 PM
Tue, Sep 1
52 °FPassing clouds.No wind77%30.44 "HgN/A
10:00 PM52 °FPassing clouds.2 mph77%30.45 "HgN/A
9:00 PM48 °FPassing clouds.3 mph82%30.41 "HgN/A
8:00 PM54 °FPassing clouds.2 mph67%30.37 "HgN/A
7:00 PM55 °FPassing clouds.8 mph59%30.35 "HgN/A
6:00 PM61 °FScattered clouds.7 mph52%30.33 "HgN/A
4:00 PM63 °FScattered showers. Scattered clouds.17 mph49%30.33 "HgN/A
3:00 PM63 °FScattered showers. Partly sunny.7 mph49%30.33 "HgN/A
2:00 PM63 °FScattered showers. Partly sunny.9 mph52%30.35 "HgN/A
Weather by CustomWeather, © 2015

See weather overviewHow to use our weather pages